Time,TemperatureF,DewpointF,PressureIn,WindDirection,WindDirectionDegrees,WindSpeedMPH,WindSpeedGustMPH,Humidity,HourlyPrecipIn,Conditions,Clouds,dailyrainin,SolarRadiationWatts/m^2,SoftwareType,DateUTC
2013-07-09 00:03:00,61.8,22.6,29.84,WNW,293,7.0,12.0,22,0.00,,,0.00,0,WeatherCatV1.15B25,2013-07-09 07:03:00,
2013-07-09 00:08:00,61.6,22.4,29.84,West,272,9.0,12.0,22,0.00,,,0.00,0,WeatherCatV1.15B25,2013-07-09 07:08:00,
2013-07-09 00:13:00,61.5,23.4,29.84,NW,304,7.0,7.0,23,0.00,,,0.00,0,WeatherCatV1.15B25,2013-07-09 07:13:00,
2013-07-09 00:18:00,61.3,22.1,29.86,WNW,297,6.0,12.0,22,0.00,,,0.00,0,WeatherCatV1.15B25,2013-07-09 07:18:00,
2013-07-09 00:23:00,61.2,22.1,29.86,NW,310,10.0,12.0,22,0.00,,,0.00,0,WeatherCatV1.15B25,2013-07-09 07:23:00,
2013-07-09 00:28:00,61.2,22.1,29.86,NW,316,6.0,9.0,22,0.00,,,0.00,0,WeatherCatV1.15B25,2013-07-09 07:28:00,
2013-07-09 00:33:00,61.2,22.1,29.87,NNW,347,6.0,10.0,22,0.00,,,0.00,0,WeatherCatV1.15B25,2013-07-09 07:33:00,
2013-07-09 00:38:00,61.2,21.0,29.87,NW,308,7.0,11.0,21,0.00,,,0.00,0,WeatherCatV1.15B25,2013-07-09 07:38:00,
2013-07-09 00:43:00,61.3,21.0,29.87,NW,305,7.0,11.0,21,0.00,,,0.00,0,WeatherCatV1.15B25,2013-07-09 07:43:00,
2013-07-09 00:48:00,61.3,21.0,29.87,NW,314,10.0,14.0,21,0.00,,,0.00,0,WeatherCatV1.15B25,2013-07-09 07:48:00,
2013-07-09 00:53:00,61.5,21.2,29.87,NNW,348,6.0,17.0,21,0.00,,,0.00,0,WeatherCatV1.15B25,2013-07-09 07:53:00,
2013-07-09 00:58:00,61.8,21.5,29.87,NNW,332,3.0,13.0,21,0.00,,,0.00,0,WeatherCatV1.15B25,2013-07-09 07:58:00,
2013-07-09 01:03:00,61.8,21.5,29.85,NW,326,5.0,13.0,21,0.00,,,0.00,0,WeatherCatV1.15B25,2013-07-09 08:03:00,
2013-07-09 01:08:00,61.8,21.5,29.85,NW,316,5.0,10.0,21,0.00,,,0.00,0,WeatherCatV1.15B25,2013-07-09 08:08:00,
2013-07-09 01:13:00,61.8,21.5,29.85,WNW,283,5.0,9.0,21,0.00,,,0.00,0,WeatherCatV1.15B25,2013-07-09 08:13:00,
2013-07-09 01:18:00,61.6,21.3,29.85,NW,311,4.0,12.0,21,0.00,,,0.00,0,WeatherCatV1.15B25,2013-07-09 08:18:00,
2013-07-09 01:23:00,61.6,22.4,29.85,WNW,283,10.0,10.0,22,0.00,,,0.00,0,WeatherCatV1.15B25,2013-07-09 08:23:00,
2013-07-09 01:28:00,61.6,22.4,29.85,NW,313,4.0,7.0,22,0.00,,,0.00,0,WeatherCatV1.15B25,2013-07-09 08:28:00,
2013-07-09 01:33:00,61.5,22.3,29.84,WNW,288,5.0,11.0,22,0.00,,,0.00,0,WeatherCatV1.15B25,2013-07-09 08:33:00,
2013-07-09 01:38:00,61.3,22.1,29.84,NNW,328,3.0,10.0,22,0.00,,,0.00,0,WeatherCatV1.15B25,2013-07-09 08:38:00,
2013-07-09 01:43:00,61.3,21.0,29.84,WNW,288,13.0,13.0,21,0.00,,,0.00,0,WeatherCatV1.15B25,2013-07-09 08:43:00,
2013-07-09 01:48:00,61.5,21.2,29.86,WNW,283,5.0,9.0,21,0.00,,,0.00,0,WeatherCatV1.15B25,2013-07-09 08:48:00,
2013-07-09 01:53:00,61.5,21.2,29.86,WNW,288,9.0,10.0,21,0.00,,,0.00,0,WeatherCatV1.15B25,2013-07-09 08:53:00,
2013-07-09 01:58:00,61.2,22.1,29.86,West,274,3.0,11.0,22,0.00,,,0.00,0,WeatherCatV1.15B25,2013-07-09 08:58:00,
2013-07-09 02:03:00,61.0,21.9,29.85,WNW,293,3.0,12.0,22,0.00,,,0.00,0,WeatherCatV1.15B25,2013-07-09 09:03:00,
2013-07-09 02:08:00,61.0,21.9,29.85,West,272,5.0,13.0,22,0.00,,,0.00,0,WeatherCatV1.15B25,2013-07-09 09:08:00,
2013-07-09 02:13:00,61.0,20.8,29.85,North,353,7.0,11.0,21,0.00,,,0.00,0,WeatherCatV1.15B25,2013-07-09 09:13:00,
2013-07-09 02:18:00,61.2,21.0,29.85,WNW,288,11.0,12.0,21,0.00,,,0.00,0,WeatherCatV1.15B25,2013-07-09 09:18:00,
2013-07-09 02:23:00,61.2,21.0,29.85,WNW,283,4.0,11.0,21,0.00,,,0.00,0,WeatherCatV1.15B25,2013-07-09 09:23:00,
2013-07-09 02:28:00,61.2,21.0,29.85,WNW,298,10.0,12.0,21,0.00,,,0.00,0,WeatherCatV1.15B25,2013-07-09 09:28:00,
2013-07-09 02:33:00,61.2,21.0,29.85,NW,324,5.0,13.0,21,0.00,,,0.00,0,WeatherCatV1.15B25,2013-07-09 09:33:00,
2013-07-09 02:38:00,61.2,21.0,29.85,NW,314,4.0,4.0,21,0.00,,,0.00,0,WeatherCatV1.15B25,2013-07-09 09:38:00,
2013-07-09 02:43:00,61.0,20.8,29.85,WNW,288,9.0,12.0,21,0.00,,,0.00,0,WeatherCatV1.15B25,2013-07-09 09:43:00,
2013-07-09 02:48:00,60.9,20.7,29.86,WNW,288,8.0,12.0,21,0.00,,,0.00,0,WeatherCatV1.15B25,2013-07-09 09:48:00,
2013-07-09 02:53:00,60.9,20.7,29.86,WNW,288,5.0,15.0,21,0.00,,,0.00,0,WeatherCatV1.15B25,2013-07-09 09:53:00,
2013-07-09 02:58:00,60.9,20.7,29.86,WNW,302,9.0,12.0,21,0.00,,,0.00,0,WeatherCatV1.15B25,2013-07-09 09:58:00,
2013-07-09 03:03:00,61.0,20.8,29.86,NW,309,1.0,10.0,21,0.00,,,0.00,0,WeatherCatV1.15B25,2013-07-09 10:03:00,
2013-07-09 03:08:00,61.0,20.8,29.86,WNW,293,6.0,13.0,21,0.00,,,0.00,0,WeatherCatV1.15B25,2013-07-09 10:08:00,
2013-07-09 03:13:00,61.0,20.8,29.86,WNW,283,1.0,14.0,21,0.00,,,0.00,0,WeatherCatV1.15B25,2013-07-09 10:13:00,
2013-07-09 03:18:00,60.9,20.7,29.86,WNW,293,10.0,14.0,21,0.00,,,0.00,0,WeatherCatV1.15B25,2013-07-09 10:18:00,
2013-07-09 03:23:00,60.9,20.7,29.86,NNW,347,3.0,9.0,21,0.00,,,0.00,0,WeatherCatV1.15B25,2013-07-09 10:23:00,
2013-07-09 03:28:00,61.0,20.8,29.86,WNW,288,7.0,12.0,21,0.00,,,0.00,0,WeatherCatV1.15B25,2013-07-09 10:28:00,
2013-07-09 03:33:00,61.2,21.0,29.86,West,276,6.0,7.0,21,0.00,,,0.00,0,WeatherCatV1.15B25,2013-07-09 10:33:00,
2013-07-09 03:38:00,61.2,21.0,29.86,NW,308,4.0,6.0,21,0.00,,,0.00,0,WeatherCatV1.15B25,2013-07-09 10:38:00,
2013-07-09 03:43:00,61.2,21.0,29.86,WNW,283,10.0,12.0,21,0.00,,,0.00,0,WeatherCatV1.15B25,2013-07-09 10:43:00,
2013-07-09 03:48:00,61.2,21.0,29.86,NW,307,2.0,7.0,21,0.00,,,0.00,0,WeatherCatV1.15B25,2013-07-09 10:48:00,
2013-07-09 03:53:00,61.0,20.8,29.86,WNW,293,9.0,10.0,21,0.00,,,0.00,0,WeatherCatV1.15B25,2013-07-09 10:53:00,
2013-07-09 03:58:00,61.0,20.8,29.86,NW,314,2.0,10.0,21,0.00,,,0.00,0,WeatherCatV1.15B25,2013-07-09 10:58:00,
2013-07-09 04:03:00,60.9,20.7,29.87,WNW,298,6.0,14.0,21,0.00,,,0.00,0,WeatherCatV1.15B25,2013-07-09 11:03:00,
2013-07-09 04:08:00,60.9,20.7,29.87,North,354,7.0,11.0,21,0.00,,,0.00,0,WeatherCatV1.15B25,2013-07-09 11:08:00,
2013-07-09 04:13:00,60.7,21.6,29.87,WNW,303,7.0,14.0,22,0.00,,,0.00,0,WeatherCatV1.15B25,2013-07-09 11:13:00,
2013-07-09 04:18:00,60.7,21.6,29.86,NW,315,9.0,13.0,22,0.00,,,0.00,0,WeatherCatV1.15B25,2013-07-09 11:18:00,
2013-07-09 04:23:00,60.9,21.8,29.86,West,264,1.0,9.0,22,0.00,,,0.00,0,WeatherCatV1.15B25,2013-07-09 11:23:00,
2013-07-09 04:28:00,60.7,21.6,29.86,NW,326,6.0,13.0,22,0.00,,,0.00,0,WeatherCatV1.15B25,2013-07-09 11:28:00,
2013-07-09 04:33:00,60.9,21.8,29.87,WNW,293,6.0,10.0,22,0.00,,,0.00,0,WeatherCatV1.15B25,2013-07-09 11:33:00,
2013-07-09 04:38:00,60.9,21.8,29.87,WNW,303,12.0,13.0,22,0.00,,,0.00,0,WeatherCatV1.15B25,2013-07-09 11:38:00,
2013-07-09 04:43:00,61.0,21.9,29.87,NW,310,6.0,16.0,22,0.00,,,0.00,0,WeatherCatV1.15B25,2013-07-09 11:43:00,
2013-07-09 04:48:00,61.0,21.9,29.87,NW,306,6.0,11.0,22,0.00,,,0.00,0,WeatherCatV1.15B25,2013-07-09 11:48:00,
2013-07-09 04:53:00,61.0,21.9,29.87,NW,325,6.0,14.0,22,0.00,,,0.00,0,WeatherCatV1.15B25,2013-07-09 11:53:00,
2013-07-09 04:58:00,60.9,21.8,29.87,NW,322,4.0,15.0,22,0.00,,,0.00,0,WeatherCatV1.15B25,2013-07-09 11:58:00,
2013-07-09 05:03:00,60.9,21.8,29.87,WNW,299,5.0,12.0,22,0.00,,,0.00,0,WeatherCatV1.15B25,2013-07-09 12:03:00,
2013-07-09 05:08:00,60.7,21.6,29.87,WNW,283,13.0,13.0,22,0.00,,,0.00,0,WeatherCatV1.15B25,2013-07-09 12:08:00,
2013-07-09 05:13:00,60.7,21.6,29.87,NW,311,7.0,12.0,22,0.00,,,0.00,0,WeatherCatV1.15B25,2013-07-09 12:13:00,
2013-07-09 05:18:00,60.5,21.5,29.88,North,349,4.0,16.0,22,0.00,,,0.00,0,WeatherCatV1.15B25,2013-07-09 12:18:00,
2013-07-09 05:23:00,60.5,21.5,29.88,WNW,293,13.0,13.0,22,0.00,,,0.00,0,WeatherCatV1.15B25,2013-07-09 12:23:00,
2013-07-09 05:28:00,60.5,21.5,29.88,NW,304,16.0,18.0,22,0.00,,,0.00,0,WeatherCatV1.15B25,2013-07-09 12:28:00,
2013-07-09 05:33:00,60.7,21.6,29.88,NW,320,12.0,17.0,22,0.00,,,0.00,0,WeatherCatV1.15B25,2013-07-09 12:33:00,
2013-07-09 05:38:00,60.7,21.6,29.88,NNW,329,5.0,15.0,22,0.00,,,0.00,0,WeatherCatV1.15B25,2013-07-09 12:38:00,
2013-07-09 05:43:00,60.7,21.6,29.88,WNW,293,10.0,16.0,22,0.00,,,0.00,0,WeatherCatV1.15B25,2013-07-09 12:43:00,
2013-07-09 05:48:00,60.7,21.6,29.88,WNW,283,6.0,11.0,22,0.00,,,0.00,7,WeatherCatV1.15B25,2013-07-09 12:48:00,
2013-07-09 05:53:00,60.7,21.6,29.88,NW,320,7.0,15.0,22,0.00,,,0.00,9,WeatherCatV1.15B25,2013-07-09 12:53:00,
2013-07-09 05:58:00,60.7,21.6,29.88,WNW,303,11.0,11.0,22,0.00,,,0.00,12,WeatherCatV1.15B25,2013-07-09 12:58:00,
2013-07-09 06:03:00,60.9,21.8,29.89,WNW,303,8.0,18.0,22,0.00,,,0.00,16,WeatherCatV1.15B25,2013-07-09 13:03:00,
2013-07-09 06:08:00,60.7,21.6,29.89,WSW,240,4.0,13.0,22,0.00,,,0.00,19,WeatherCatV1.15B25,2013-07-09 13:08:00,
2013-07-09 06:13:00,60.7,21.6,29.89,NW,316,10.0,16.0,22,0.00,,,0.00,21,WeatherCatV1.15B25,2013-07-09 13:13:00,
2013-07-09 06:18:00,60.7,22.7,29.90,NNW,342,4.0,13.0,23,0.00,,,0.00,25,WeatherCatV1.15B25,2013-07-09 13:18:00,
2013-07-09 06:23:00,60.5,22.5,29.90,WNW,297,10.0,14.0,23,0.00,,,0.00,28,WeatherCatV1.15B25,2013-07-09 13:23:00,
2013-07-09 06:28:00,60.5,22.5,29.90,NW,318,14.0,14.0,23,0.00,,,0.00,51,WeatherCatV1.15B25,2013-07-09 13:28:00,
2013-07-09 06:33:00,60.7,22.7,29.91,WNW,297,10.0,13.0,23,0.00,,,0.00,62,WeatherCatV1.15B25,2013-07-09 13:33:00,
2013-07-09 06:38:00,60.7,22.7,29.91,NW,306,10.0,13.0,23,0.00,,,0.00,74,WeatherCatV1.15B25,2013-07-09 13:38:00,
2013-07-09 06:43:00,60.7,22.7,29.91,NW,314,12.0,15.0,23,0.00,,,0.00,90,WeatherCatV1.15B25,2013-07-09 13:43:00,
2013-07-09 06:48:00,60.7,22.7,29.91,WNW,293,13.0,13.0,23,0.00,,,0.00,98,WeatherCatV1.15B25,2013-07-09 13:48:00,
2013-07-09 06:53:00,60.9,22.9,29.91,NW,308,11.0,13.0,23,0.00,,,0.00,113,WeatherCatV1.15B25,2013-07-09 13:53:00,
2013-07-09 06:58:00,60.9,22.9,29.91,West,270,11.0,13.0,23,0.00,,,0.00,127,WeatherCatV1.15B25,2013-07-09 13:58:00,
2013-07-09 07:03:00,61.0,22.9,29.92,WNW,293,13.0,16.0,23,0.00,,,0.00,141,WeatherCatV1.15B25,2013-07-09 14:03:00,
2013-07-09 07:08:00,61.0,22.9,29.92,WNW,298,7.0,12.0,23,0.00,,,0.00,153,WeatherCatV1.15B25,2013-07-09 14:08:00,
2013-07-09 07:13:00,61.2,23.1,29.92,NW,304,9.0,15.0,23,0.00,,,0.00,171,WeatherCatV1.15B25,2013-07-09 14:13:00,
2013-07-09 07:18:00,61.2,23.1,29.95,WNW,293,9.0,14.0,23,0.00,,,0.00,178,WeatherCatV1.15B25,2013-07-09 14:18:00,
2013-07-09 07:23:00,61.3,23.2,29.95,NW,311,4.0,15.0,23,0.00,,,0.00,190,WeatherCatV1.15B25,2013-07-09 14:23:00,
2013-07-09 07:28:00,61.3,23.2,29.95,WNW,302,11.0,13.0,23,0.00,,,0.00,209,WeatherCatV1.15B25,2013-07-09 14:28:00,
2013-07-09 07:33:00,61.5,22.3,29.96,NW,311,6.0,19.0,22,0.00,,,0.00,227,WeatherCatV1.15B25,2013-07-09 14:33:00,
2013-07-09 07:38:00,61.8,23.6,29.96,WNW,293,11.0,14.0,23,0.00,,,0.00,241,WeatherCatV1.15B25,2013-07-09 14:38:00,
2013-07-09 07:43:00,61.8,23.6,29.96,WNW,293,12.0,14.0,23,0.00,,,0.00,253,WeatherCatV1.15B25,2013-07-09 14:43:00,
2013-07-09 07:48:00,62.0,22.7,29.94,NW,308,9.0,15.0,22,0.00,,,0.00,267,WeatherCatV1.15B25,2013-07-09 14:48:00,
2013-07-09 07:53:00,62.0,23.8,29.94,NW,305,13.0,13.0,23,0.00,,,0.00,288,WeatherCatV1.15B25,2013-07-09 14:53:00,
2013-07-09 07:58:00,62.1,23.9,29.94,WNW,288,8.0,12.0,23,0.00,,,0.00,299,WeatherCatV1.15B25,2013-07-09 14:58:00,
2013-07-09 08:03:00,62.1,23.9,29.94,WNW,293,5.0,13.0,23,0.00,,,0.00,320,WeatherCatV1.15B25,2013-07-09 15:03:00,
2013-07-09 08:08:00,62.3,24.0,29.94,NW,320,2.0,13.0,23,0.00,,,0.00,332,WeatherCatV1.15B25,2013-07-09 15:08:00,
2013-07-09 08:13:00,62.4,24.1,29.94,WNW,297,6.0,13.0,23,0.00,,,0.00,355,WeatherCatV1.15B25,2013-07-09 15:13:00,
2013-07-09 08:18:00,62.4,24.1,29.98,NW,306,11.0,15.0,23,0.00,,,0.00,371,WeatherCatV1.15B25,2013-07-09 15:18:00,
2013-07-09 08:23:00,62.6,24.3,29.98,NW,304,10.0,13.0,23,0.00,,,0.00,387,WeatherCatV1.15B25,2013-07-09 15:23:00,
2013-07-09 08:28:00,62.7,27.3,29.98,NW,316,8.0,14.0,26,0.00,,,0.00,401,WeatherCatV1.15B25,2013-07-09 15:28:00,
2013-07-09 08:33:00,62.9,24.5,29.98,WNW,293,8.0,13.0,23,0.00,,,0.00,415,WeatherCatV1.15B25,2013-07-09 15:33:00,
2013-07-09 08:38:00,63.1,25.7,29.98,NW,316,11.0,13.0,24,0.00,,,0.00,429,WeatherCatV1.15B25,2013-07-09 15:38:00,
2013-07-09 08:43:00,63.1,25.7,29.98,WNW,293,13.0,15.0,24,0.00,,,0.00,446,WeatherCatV1.15B25,2013-07-09 15:43:00,
2013-07-09 08:48:00,63.2,26.8,29.98,WNW,283,6.0,8.0,25,0.00,,,0.00,462,WeatherCatV1.15B25,2013-07-09 15:48:00,
2013-07-09 08:53:00,63.4,27.0,29.98,NW,320,9.0,11.0,25,0.00,,,0.00,478,WeatherCatV1.15B25,2013-07-09 15:53:00,
2013-07-09 08:58:00,63.4,27.0,29.98,NW,305,11.0,14.0,25,0.00,,,0.00,490,WeatherCatV1.15B25,2013-07-09 15:58:00,
2013-07-09 09:03:00,63.4,26.0,29.98,WNW,293,7.0,13.0,24,0.00,,,0.00,506,WeatherCatV1.15B25,2013-07-09 16:03:00,
2013-07-09 09:08:00,63.5,27.1,29.98,NW,312,11.0,12.0,25,0.00,,,0.00,519,WeatherCatV1.15B25,2013-07-09 16:08:00,
2013-07-09 09:13:00,63.7,27.2,29.98,West,279,7.0,15.0,25,0.00,,,0.00,536,WeatherCatV1.15B25,2013-07-09 16:13:00,
2013-07-09 09:18:00,63.9,28.3,29.98,West,278,6.0,12.0,26,0.00,,,0.00,545,WeatherCatV1.15B25,2013-07-09 16:18:00,
2013-07-09 09:23:00,64.0,28.4,29.98,WNW,288,9.0,14.0,26,0.00,,,0.00,570,WeatherCatV1.15B25,2013-07-09 16:23:00,
2013-07-09 09:28:00,64.2,27.6,29.98,WNW,293,8.0,16.0,25,0.00,,,0.00,578,WeatherCatV1.15B25,2013-07-09 16:28:00,
2013-07-09 09:33:00,64.5,27.9,29.98,WNW,288,4.0,12.0,25,0.00,,,0.00,594,WeatherCatV1.15B25,2013-07-09 16:33:00,
2013-07-09 09:38:00,64.5,28.9,29.98,WSW,246,6.0,10.0,26,0.00,,,0.00,603,WeatherCatV1.15B25,2013-07-09 16:38:00,
2013-07-09 09:43:00,64.7,27.1,29.98,WNW,297,12.0,12.0,24,0.00,,,0.00,621,WeatherCatV1.15B25,2013-07-09 16:43:00,
2013-07-09 09:48:00,64.8,28.2,29.97,WNW,288,6.0,10.0,25,0.00,,,0.00,633,WeatherCatV1.15B25,2013-07-09 16:48:00,
2013-07-09 09:53:00,65.0,28.3,29.97,WNW,297,4.0,10.0,25,0.00,,,0.00,642,WeatherCatV1.15B25,2013-07-09 16:53:00,
2013-07-09 09:58:00,65.2,28.5,29.97,WNW,288,6.0,10.0,25,0.00,,,0.00,656,WeatherCatV1.15B25,2013-07-09 16:58:00,
2013-07-09 10:03:00,65.5,27.8,29.97,West,278,10.0,14.0,24,0.00,,,0.00,668,WeatherCatV1.15B25,2013-07-09 17:03:00,
2013-07-09 10:08:00,65.5,26.7,29.97,WNW,293,8.0,11.0,23,0.00,,,0.00,680,WeatherCatV1.15B25,2013-07-09 17:08:00,
2013-07-09 10:13:00,65.6,26.8,29.97,NW,312,10.0,12.0,23,0.00,,,0.00,694,WeatherCatV1.15B25,2013-07-09 17:13:00,
2013-07-09 10:18:00,65.6,27.8,29.97,WNW,283,8.0,15.0,24,0.00,,,0.00,703,WeatherCatV1.15B25,2013-07-09 17:18:00,
2013-07-09 10:23:00,66.0,29.2,29.97,West,270,7.0,12.0,25,0.00,,,0.00,726,WeatherCatV1.15B25,2013-07-09 17:23:00,
2013-07-09 10:28:00,66.0,28.2,29.97,West,271,7.0,7.0,24,0.00,,,0.00,726,WeatherCatV1.15B25,2013-07-09 17:28:00,
2013-07-09 10:33:00,66.1,28.3,29.97,WNW,288,8.0,14.0,24,0.00,,,0.00,733,WeatherCatV1.15B25,2013-07-09 17:33:00,
2013-07-09 10:38:00,66.4,29.5,29.97,WNW,297,5.0,12.0,25,0.00,,,0.00,752,WeatherCatV1.15B25,2013-07-09 17:38:00,
2013-07-09 10:43:00,66.6,29.7,29.97,WNW,293,8.0,13.0,25,0.00,,,0.00,759,WeatherCatV1.15B25,2013-07-09 17:43:00,
2013-07-09 10:48:00,66.8,30.8,29.97,West,264,4.0,13.0,26,0.00,,,0.00,770,WeatherCatV1.15B25,2013-07-09 17:48:00,
2013-07-09 10:53:00,66.9,29.9,29.97,West,270,5.0,7.0,25,0.00,,,0.00,780,WeatherCatV1.15B25,2013-07-09 17:53:00,
2013-07-09 10:58:00,67.1,28.1,29.97,WNW,288,9.0,10.0,23,0.00,,,0.00,786,WeatherCatV1.15B25,2013-07-09 17:58:00,
2013-07-09 11:03:00,67.1,28.1,29.97,WNW,283,5.0,11.0,23,0.00,,,0.00,810,WeatherCatV1.15B25,2013-07-09 18:03:00,
2013-07-09 11:08:00,67.4,29.4,29.97,WNW,288,7.0,9.0,24,0.00,,,0.00,823,WeatherCatV1.15B25,2013-07-09 18:08:00,
2013-07-09 11:13:00,67.4,27.2,29.97,WNW,293,4.0,12.0,22,0.00,,,0.00,833,WeatherCatV1.15B25,2013-07-09 18:13:00,
2013-07-09 11:18:00,67.6,29.5,29.97,WSW,252,6.0,11.0,24,0.00,,,0.00,849,WeatherCatV1.15B25,2013-07-09 18:18:00,
2013-07-09 11:23:00,67.9,31.7,29.97,NW,308,10.0,15.0,26,0.00,,,0.00,853,WeatherCatV1.15B25,2013-07-09 18:23:00,
2013-07-09 11:28:00,68.1,29.9,29.97,West,260,7.0,9.0,24,0.00,,,0.00,846,WeatherCatV1.15B25,2013-07-09 18:28:00,
2013-07-09 11:33:00,68.3,28.0,29.95,SW,230,7.0,10.0,22,0.00,,,0.00,868,WeatherCatV1.15B25,2013-07-09 18:33:00,
2013-07-09 11:38:00,68.3,28.0,29.95,North,353,6.0,17.0,22,0.00,,,0.00,874,WeatherCatV1.15B25,2013-07-09 18:38:00,
2013-07-09 11:43:00,68.4,28.1,29.95,WNW,283,4.0,14.0,22,0.00,,,0.00,882,WeatherCatV1.15B25,2013-07-09 18:43:00,
2013-07-09 11:48:00,68.4,26.9,29.96,WNW,288,13.0,19.0,21,0.00,,,0.00,895,WeatherCatV1.15B25,2013-07-09 18:48:00,
2013-07-09 11:53:00,67.9,27.7,29.96,NW,310,3.0,12.0,22,0.00,,,0.00,912,WeatherCatV1.15B25,2013-07-09 18:53:00,
2013-07-09 11:58:00,68.1,28.9,29.96,WNW,293,10.0,14.0,23,0.00,,,0.00,921,WeatherCatV1.15B25,2013-07-09 18:58:00,
2013-07-09 12:03:00,68.8,29.5,29.95,NW,316,15.0,17.0,23,0.00,,,0.00,923,WeatherCatV1.15B25,2013-07-09 19:03:00,
2013-07-09 12:08:00,68.4,25.8,29.95,NNW,346,8.0,20.0,20,0.00,,,0.00,926,WeatherCatV1.15B25,2013-07-09 19:08:00,
2013-07-09 12:13:00,68.3,26.9,29.95,WNW,293,15.0,19.0,21,0.00,,,0.00,932,WeatherCatV1.15B25,2013-07-09 19:13:00,
2013-07-09 12:18:00,68.6,28.2,29.96,West,268,6.0,15.0,22,0.00,,,0.00,939,WeatherCatV1.15B25,2013-07-09 19:18:00,
2013-07-09 12:23:00,68.8,27.3,29.96,NW,314,10.0,18.0,21,0.00,,,0.00,940,WeatherCatV1.15B25,2013-07-09 19:23:00,
2013-07-09 12:28:00,68.9,28.5,29.96,West,264,6.0,16.0,22,0.00,,,0.00,946,WeatherCatV1.15B25,2013-07-09 19:28:00,
2013-07-09 12:33:00,69.1,27.5,29.96,West,270,6.0,14.0,21,0.00,,,0.00,947,WeatherCatV1.15B25,2013-07-09 19:33:00,
2013-07-09 12:38:00,69.3,28.8,29.96,WNW,297,9.0,16.0,22,0.00,,,0.00,954,WeatherCatV1.15B25,2013-07-09 19:38:00,
2013-07-09 12:43:00,69.6,29.1,29.96,WNW,297,4.0,16.0,22,0.00,,,0.00,956,WeatherCatV1.15B25,2013-07-09 19:43:00,
2013-07-09 12:48:00,70.1,30.6,29.94,WNW,288,11.0,16.0,23,0.00,,,0.00,960,WeatherCatV1.15B25,2013-07-09 19:48:00,
2013-07-09 12:53:00,70.4,28.6,29.94,West,263,13.0,17.0,21,0.00,,,0.00,962,WeatherCatV1.15B25,2013-07-09 19:53:00,
2013-07-09 12:58:00,69.8,28.1,29.94,NW,313,16.0,17.0,21,0.00,,,0.00,962,WeatherCatV1.15B25,2013-07-09 19:58:00,
2013-07-09 13:03:00,69.6,29.1,29.94,WSW,242,12.0,16.0,22,0.00,,,0.00,965,WeatherCatV1.15B25,2013-07-09 20:03:00,
2013-07-09 13:08:00,69.8,32.4,29.94,WNW,283,10.0,15.0,25,0.00,,,0.00,967,WeatherCatV1.15B25,2013-07-09 20:08:00,
2013-07-09 13:13:00,70.4,28.6,29.94,NW,310,10.0,15.0,21,0.00,,,0.00,967,WeatherCatV1.15B25,2013-07-09 20:13:00,
2013-07-09 13:18:00,71.3,29.3,29.95,NW,311,14.0,18.0,21,0.00,,,0.00,967,WeatherCatV1.15B25,2013-07-09 20:18:00,
2013-07-09 13:23:00,71.5,31.8,29.95,WNW,283,12.0,14.0,23,0.00,,,0.00,967,WeatherCatV1.15B25,2013-07-09 20:23:00,
2013-07-09 13:28:00,71.8,28.6,29.95,NW,304,10.0,19.0,20,0.00,,,0.00,965,WeatherCatV1.15B25,2013-07-09 20:28:00,
2013-07-09 13:33:00,71.5,28.3,29.93,WNW,302,14.0,14.0,20,0.00,,,0.00,965,WeatherCatV1.15B25,2013-07-09 20:33:00,
2013-07-09 13:38:00,71.1,29.2,29.93,NW,310,13.0,14.0,21,0.00,,,0.00,965,WeatherCatV1.15B25,2013-07-09 20:38:00,
2013-07-09 13:43:00,70.8,28.9,29.93,NW,311,18.0,23.0,21,0.00,,,0.00,963,WeatherCatV1.15B25,2013-07-09 20:43:00,
2013-07-09 13:48:00,70.3,28.5,29.93,WNW,299,7.0,21.0,21,0.00,,,0.00,960,WeatherCatV1.15B25,2013-07-09 20:48:00,
2013-07-09 13:53:00,70.3,28.5,29.93,NW,307,6.0,21.0,21,0.00,,,0.00,956,WeatherCatV1.15B25,2013-07-09 20:53:00,
2013-07-09 13:58:00,70.4,28.6,29.93,WNW,288,11.0,15.0,21,0.00,,,0.00,954,WeatherCatV1.15B25,2013-07-09 20:58:00,
2013-07-09 14:03:00,70.4,28.6,29.94,NW,308,14.0,18.0,21,0.00,,,0.00,951,WeatherCatV1.15B25,2013-07-09 21:03:00,
2013-07-09 14:08:00,70.3,28.5,29.94,WNW,293,17.0,22.0,21,0.00,,,0.00,946,WeatherCatV1.15B25,2013-07-09 21:08:00,
2013-07-09 14:13:00,70.1,29.5,29.94,West,264,11.0,15.0,22,0.00,,,0.00,944,WeatherCatV1.15B25,2013-07-09 21:13:00,
2013-07-09 14:18:00,70.4,28.6,29.94,NNW,328,13.0,17.0,21,0.00,,,0.00,939,WeatherCatV1.15B25,2013-07-09 21:18:00,
2013-07-09 14:23:00,71.5,29.5,29.94,NNW,338,6.0,17.0,21,0.00,,,0.00,932,WeatherCatV1.15B25,2013-07-09 21:23:00,
2013-07-09 14:28:00,71.8,28.6,29.94,WNW,293,5.0,25.0,20,0.00,,,0.00,930,WeatherCatV1.15B25,2013-07-09 21:28:00,
2013-07-09 14:33:00,71.1,29.2,29.92,West,276,22.0,25.0,21,0.00,,,0.00,925,WeatherCatV1.15B25,2013-07-09 21:33:00,
2013-07-09 14:38:00,70.6,31.0,29.92,WNW,297,10.0,14.0,23,0.00,,,0.00,916,WeatherCatV1.15B25,2013-07-09 21:38:00,
2013-07-09 14:43:00,70.9,30.2,29.92,NNW,340,7.0,17.0,22,0.00,,,0.00,909,WeatherCatV1.15B25,2013-07-09 21:43:00,
2013-07-09 14:48:00,71.5,29.5,29.92,NW,322,19.0,21.0,21,0.00,,,0.00,904,WeatherCatV1.15B25,2013-07-09 21:48:00,
2013-07-09 14:53:00,71.1,30.3,29.92,WNW,288,19.0,23.0,22,0.00,,,0.00,896,WeatherCatV1.15B25,2013-07-09 21:53:00,
2013-07-09 14:58:00,71.1,29.2,29.92,NW,312,14.0,26.0,21,0.00,,,0.00,888,WeatherCatV1.15B25,2013-07-09 21:58:00,
2013-07-09 15:03:00,70.8,30.1,29.92,North,350,10.0,20.0,22,0.00,,,0.00,879,WeatherCatV1.15B25,2013-07-09 22:03:00,
2013-07-09 15:08:00,71.3,31.6,29.92,NNW,339,5.0,20.0,23,0.00,,,0.00,872,WeatherCatV1.15B25,2013-07-09 22:08:00,
2013-07-09 15:13:00,71.5,29.5,29.92,NW,310,11.0,18.0,21,0.00,,,0.00,863,WeatherCatV1.15B25,2013-07-09 22:13:00,
2013-07-09 15:18:00,72.1,30.0,29.92,WNW,297,11.0,21.0,21,0.00,,,0.00,854,WeatherCatV1.15B25,2013-07-09 22:18:00,
2013-07-09 15:23:00,72.1,31.2,29.92,West,275,5.0,21.0,22,0.00,,,0.00,847,WeatherCatV1.15B25,2013-07-09 22:23:00,
2013-07-09 15:28:00,72.1,31.2,29.92,WNW,301,15.0,24.0,22,0.00,,,0.00,837,WeatherCatV1.15B25,2013-07-09 22:28:00,
2013-07-09 15:33:00,71.6,30.7,29.92,West,266,16.0,22.0,22,0.00,,,0.00,824,WeatherCatV1.15B25,2013-07-09 22:33:00,
2013-07-09 15:38:00,71.5,31.8,29.92,WNW,283,21.0,21.0,23,0.00,,,0.00,816,WeatherCatV1.15B25,2013-07-09 22:38:00,
2013-07-09 15:43:00,71.3,30.5,29.92,North,5,15.0,24.0,22,0.00,,,0.00,803,WeatherCatV1.15B25,2013-07-09 22:43:00,
2013-07-09 15:48:00,71.1,31.4,29.92,NNW,329,10.0,22.0,23,0.00,,,0.00,791,WeatherCatV1.15B25,2013-07-09 22:48:00,
2013-07-09 15:53:00,71.8,32.0,29.92,WNW,283,17.0,21.0,23,0.00,,,0.00,784,WeatherCatV1.15B25,2013-07-09 22:53:00,
2013-07-09 15:58:00,71.6,30.7,29.92,WNW,293,20.0,24.0,22,0.00,,,0.00,772,WeatherCatV1.15B25,2013-07-09 22:58:00,
2013-07-09 16:03:00,71.1,30.3,29.91,NNW,347,6.0,22.0,22,0.00,,,0.00,758,WeatherCatV1.15B25,2013-07-09 23:03:00,
2013-07-09 16:08:00,71.1,30.3,29.91,NNW,347,5.0,15.0,22,0.00,,,0.00,744,WeatherCatV1.15B25,2013-07-09 23:08:00,
2013-07-09 16:13:00,71.3,30.5,29.91,NW,318,13.0,23.0,22,0.00,,,0.00,733,WeatherCatV1.15B25,2013-07-09 23:13:00,
2013-07-09 16:18:00,71.3,31.6,29.91,NNW,336,11.0,26.0,23,0.00,,,0.00,724,WeatherCatV1.15B25,2013-07-09 23:18:00,
2013-07-09 16:23:00,71.3,31.6,29.91,WSW,248,15.0,17.0,23,0.00,,,0.00,710,WeatherCatV1.15B25,2013-07-09 23:23:00,
2013-07-09 16:28:00,71.3,31.6,29.91,WNW,288,12.0,23.0,23,0.00,,,0.00,700,WeatherCatV1.15B25,2013-07-09 23:28:00,
2013-07-09 16:33:00,70.9,31.2,29.91,NNE,19,12.0,24.0,23,0.00,,,0.00,687,WeatherCatV1.15B25,2013-07-09 23:33:00,
2013-07-09 16:38:00,71.3,31.6,29.91,WNW,293,8.0,18.0,23,0.00,,,0.00,673,WeatherCatV1.15B25,2013-07-09 23:38:00,
2013-07-09 16:43:00,71.6,31.8,29.91,WNW,293,19.0,26.0,23,0.00,,,0.00,661,WeatherCatV1.15B25,2013-07-09 23:43:00,
2013-07-09 16:48:00,71.1,33.5,29.90,West,268,19.0,23.0,25,0.00,,,0.00,645,WeatherCatV1.15B25,2013-07-09 23:48:00,
2013-07-09 16:53:00,70.4,30.8,29.90,NW,305,22.0,26.0,23,0.00,,,0.00,633,WeatherCatV1.15B25,2013-07-09 23:53:00,
2013-07-09 16:58:00,69.9,30.4,29.90,WNW,283,17.0,27.0,23,0.00,,,0.00,617,WeatherCatV1.15B25,2013-07-09 23:58:00,
2013-07-09 17:03:00,69.9,31.5,29.92,West,269,13.0,19.0,24,0.00,,,0.00,605,WeatherCatV1.15B25,2013-07-10 00:03:00,
2013-07-09 17:08:00,70.1,30.6,29.92,WNW,288,15.0,28.0,23,0.00,,,0.00,591,WeatherCatV1.15B25,2013-07-10 00:08:00,
2013-07-09 17:13:00,70.3,30.7,29.92,NW,307,13.0,16.0,23,0.00,,,0.00,577,WeatherCatV1.15B25,2013-07-10 00:13:00,
2013-07-09 17:18:00,70.8,32.2,29.91,WNW,288,18.0,24.0,24,0.00,,,0.00,561,WeatherCatV1.15B25,2013-07-10 00:18:00,
2013-07-09 17:23:00,70.3,31.8,29.91,WNW,283,15.0,23.0,24,0.00,,,0.00,543,WeatherCatV1.15B25,2013-07-10 00:23:00,
2013-07-09 17:28:00,70.1,31.6,29.91,NW,310,14.0,21.0,24,0.00,,,0.00,531,WeatherCatV1.15B25,2013-07-10 00:28:00,
2013-07-09 17:33:00,70.1,31.6,29.91,NW,318,21.0,21.0,24,0.00,,,0.00,515,WeatherCatV1.15B25,2013-07-10 00:33:00,
2013-07-09 17:38:00,69.8,30.3,29.91,WNW,300,20.0,22.0,23,0.00,,,0.00,503,WeatherCatV1.15B25,2013-07-10 00:38:00,
2013-07-09 17:43:00,69.6,31.2,29.91,West,270,15.0,23.0,24,0.00,,,0.00,490,WeatherCatV1.15B25,2013-07-10 00:43:00,
2013-07-09 17:48:00,69.6,31.2,29.91,WNW,283,18.0,18.0,24,0.00,,,0.00,475,WeatherCatV1.15B25,2013-07-10 00:48:00,
2013-07-09 17:53:00,69.8,30.3,29.91,NW,310,22.0,24.0,23,0.00,,,0.00,457,WeatherCatV1.15B25,2013-07-10 00:53:00,
2013-07-09 17:58:00,69.8,30.3,29.91,WNW,298,17.0,22.0,23,0.00,,,0.00,439,WeatherCatV1.15B25,2013-07-10 00:58:00,
2013-07-09 18:03:00,69.8,31.4,29.90,NNW,345,12.0,25.0,24,0.00,,,0.00,422,WeatherCatV1.15B25,2013-07-10 01:03:00,
2013-07-09 18:08:00,69.9,31.5,29.90,West,276,18.0,24.0,24,0.00,,,0.00,408,WeatherCatV1.15B25,2013-07-10 01:08:00,
2013-07-09 18:13:00,69.9,30.4,29.90,NNW,347,4.0,14.0,23,0.00,,,0.00,390,WeatherCatV1.15B25,2013-07-10 01:13:00,
2013-07-09 18:18:00,69.8,31.4,29.90,WNW,293,10.0,20.0,24,0.00,,,0.00,373,WeatherCatV1.15B25,2013-07-10 01:18:00,
2013-07-09 18:19:00,69.9,31.5,29.90,North,349,11.0,24.0,24,0.00,,,0.00,371,WeatherCatV1.15B25,2013-07-10 01:19:00,
2013-07-09 18:24:00,69.6,32.2,29.90,WNW,283,15.0,19.0,25,0.00,,,0.00,357,WeatherCatV1.15B25,2013-07-10 01:24:00,
2013-07-09 18:29:00,69.4,32.0,29.90,NW,310,14.0,18.0,25,0.00,,,0.00,338,WeatherCatV1.15B25,2013-07-10 01:29:00,
2013-07-09 18:34:00,69.3,32.0,29.90,WNW,299,11.0,16.0,25,0.00,,,0.00,322,WeatherCatV1.15B25,2013-07-10 01:34:00,
2013-07-09 18:39:00,69.1,31.8,29.90,West,272,12.0,22.0,25,0.00,,,0.00,302,WeatherCatV1.15B25,2013-07-10 01:39:00,
2013-07-09 18:44:00,68.9,32.6,29.90,WNW,302,17.0,19.0,26,0.00,,,0.00,287,WeatherCatV1.15B25,2013-07-10 01:44:00,
2013-07-09 18:49:00,68.6,31.4,29.90,NW,312,13.0,22.0,25,0.00,,,0.00,269,WeatherCatV1.15B25,2013-07-10 01:49:00,
2013-07-09 18:54:00,68.3,32.1,29.90,WNW,293,11.0,21.0,26,0.00,,,0.00,258,WeatherCatV1.15B25,2013-07-10 01:54:00,
2013-07-09 18:59:00,68.3,31.1,29.92,WNW,297,11.0,20.0,25,0.00,,,0.00,239,WeatherCatV1.15B25,2013-07-10 01:59:00,
2013-07-09 19:04:00,68.1,30.9,29.92,WNW,293,13.0,16.0,25,0.00,,,0.00,221,WeatherCatV1.15B25,2013-07-10 02:04:00,
2013-07-09 19:09:00,68.3,31.1,29.92,NW,313,13.0,18.0,25,0.00,,,0.00,206,WeatherCatV1.15B25,2013-07-10 02:09:00,
2013-07-09 19:14:00,68.1,30.9,29.91,WNW,297,17.0,21.0,25,0.00,,,0.00,190,WeatherCatV1.15B25,2013-07-10 02:14:00,
2013-07-09 19:19:00,67.9,31.7,29.91,WNW,288,16.0,18.0,26,0.00,,,0.00,172,WeatherCatV1.15B25,2013-07-10 02:19:00,
2013-07-09 19:24:00,67.8,31.7,29.91,NW,310,12.0,17.0,26,0.00,,,0.00,158,WeatherCatV1.15B25,2013-07-10 02:24:00,
2013-07-09 19:29:00,67.6,31.5,29.91,WNW,298,16.0,16.0,26,0.00,,,0.00,144,WeatherCatV1.15B25,2013-07-10 02:29:00,
2013-07-09 19:34:00,67.3,31.2,29.91,NW,312,15.0,19.0,26,0.00,,,0.00,130,WeatherCatV1.15B25,2013-07-10 02:34:00,
2013-07-09 19:39:00,66.9,31.8,29.91,WNW,297,14.0,18.0,27,0.00,,,0.00,114,WeatherCatV1.15B25,2013-07-10 02:39:00,
2013-07-09 19:44:00,66.6,32.5,29.92,WNW,301,15.0,19.0,28,0.00,,,0.00,98,WeatherCatV1.15B25,2013-07-10 02:44:00,
2013-07-09 19:49:00,66.4,32.3,29.92,NW,312,15.0,18.0,28,0.00,,,0.00,19,WeatherCatV1.15B25,2013-07-10 02:49:00,
2013-07-09 19:54:00,66.3,31.3,29.92,NW,310,21.0,21.0,27,0.00,,,0.00,21,WeatherCatV1.15B25,2013-07-10 02:54:00,
2013-07-09 19:59:00,66.0,32.0,29.92,NW,312,10.0,16.0,28,0.00,,,0.00,16,WeatherCatV1.15B25,2013-07-10 02:59:00,
2013-07-09 20:04:00,65.6,31.6,29.92,West,275,10.0,16.0,28,0.00,,,0.00,14,WeatherCatV1.15B25,2013-07-10 03:04:00,
2013-07-09 20:09:00,65.3,31.4,29.92,West,262,13.0,17.0,28,0.00,,,0.00,30,WeatherCatV1.15B25,2013-07-10 03:09:00,
2013-07-09 20:14:00,65.0,32.0,29.92,NW,312,14.0,16.0,29,0.00,,,0.00,25,WeatherCatV1.15B25,2013-07-10 03:14:00,
2013-07-09 20:19:00,64.7,30.8,29.92,NW,314,14.0,16.0,28,0.00,,,0.00,14,WeatherCatV1.15B25,2013-07-10 03:19:00,
2013-07-09 20:24:00,64.3,31.4,29.92,WNW,288,9.0,19.0,29,0.00,,,0.00,5,WeatherCatV1.15B25,2013-07-10 03:24:00,
2013-07-09 20:29:00,64.0,31.9,29.94,NW,307,11.0,18.0,30,0.00,,,0.00,0,WeatherCatV1.15B25,2013-07-10 03:29:00,
2013-07-09 20:34:00,63.7,33.3,29.94,NW,314,9.0,14.0,32,0.00,,,0.00,0,WeatherCatV1.15B25,2013-07-10 03:34:00,
2013-07-09 20:39:00,63.2,34.4,29.94,WNW,288,11.0,11.0,34,0.00,,,0.00,0,WeatherCatV1.15B25,2013-07-10 03:39:00,
2013-07-09 20:44:00,62.9,34.8,29.94,West,278,8.0,12.0,35,0.00,,,0.00,0,WeatherCatV1.15B25,2013-07-10 03:44:00,
2013-07-09 20:49:00,62.4,35.1,29.94,West,266,6.0,12.0,36,0.00,,,0.00,0,WeatherCatV1.15B25,2013-07-10 03:49:00,
2013-07-09 20:54:00,62.1,34.8,29.94,WNW,301,7.0,12.0,36,0.00,,,0.00,0,WeatherCatV1.15B25,2013-07-10 03:54:00,
2013-07-09 20:59:00,61.8,35.3,29.96,West,270,5.0,12.0,37,0.00,,,0.00,0,WeatherCatV1.15B25,2013-07-10 03:59:00,
2013-07-09 21:01:00,61.8,34.6,29.96,WNW,293,6.0,10.0,36,0.00,,,0.00,0,WeatherCatV1.15B25,2013-07-10 04:01:00,
2013-07-09 21:02:00,61.6,34.4,29.96,WNW,293,9.0,9.0,36,0.00,,,0.00,0,WeatherCatV1.15B25,2013-07-10 04:02:00,
2013-07-09 21:05:00,61.6,35.1,29.96,WNW,288,6.0,7.0,37,0.00,,,0.00,0,WeatherCatV1.15B25,2013-07-10 04:05:00,
2013-07-09 21:06:00,61.5,35.0,29.96,WNW,293,10.0,10.0,37,0.00,,,0.00,0,WeatherCatV1.15B25,2013-07-10 04:06:00,
2013-07-09 21:11:00,61.3,36.1,29.96,WSW,257,6.0,10.0,39,0.00,,,0.00,0,WeatherCatV1.15B25,2013-07-10 04:11:00,
2013-07-09 21:13:00,61.3,34.8,29.96,WSW,245,6.0,9.0,37,0.00,,,0.00,0,WeatherCatV1.15B25,2013-07-10 04:13:00,
2013-07-09 21:18:00,61.3,34.1,29.94,WNW,293,6.0,13.0,36,0.00,,,0.00,0,WeatherCatV1.15B25,2013-07-10 04:18:00,
2013-07-09 21:23:00,61.3,34.1,29.94,NW,318,4.0,7.0,36,0.00,,,0.00,0,WeatherCatV1.15B25,2013-07-10 04:23:00,
2013-07-09 21:28:00,61.2,35.4,29.94,West,276,7.0,9.0,38,0.00,,,0.00,0,WeatherCatV1.15B25,2013-07-10 04:28:00,
2013-07-09 21:33:00,61.0,37.7,29.95,WNW,283,5.0,5.0,42,0.00,,,0.00,0,WeatherCatV1.15B25,2013-07-10 04:33:00,
2013-07-09 21:38:00,60.9,35.1,29.95,West,259,5.0,7.0,38,0.00,,,0.00,0,WeatherCatV1.15B25,2013-07-10 04:38:00,
2013-07-09 21:43:00,60.7,34.9,29.95,WNW,293,4.0,7.0,38,0.00,,,0.00,0,WeatherCatV1.15B25,2013-07-10 04:43:00,
2013-07-09 21:48:00,60.4,34.7,29.95,NW,322,2.0,5.0,38,0.00,,,0.00,0,WeatherCatV1.15B25,2013-07-10 04:48:00,
2013-07-09 21:53:00,60.1,35.1,29.95,NW,312,2.0,9.0,39,0.00,,,0.00,0,WeatherCatV1.15B25,2013-07-10 04:53:00,
2013-07-09 21:58:00,59.9,34.9,29.95,WNW,288,3.0,5.0,39,0.00,,,0.00,0,WeatherCatV1.15B25,2013-07-10 04:58:00,
2013-07-09 22:03:00,59.6,35.2,29.97,WNW,301,6.0,7.0,40,0.00,,,0.00,0,WeatherCatV1.15B25,2013-07-10 05:03:00,
2013-07-09 22:08:00,59.5,35.2,29.97,West,277,7.0,10.0,40,0.00,,,0.00,0,WeatherCatV1.15B25,2013-07-10 05:08:00,
2013-07-09 22:13:00,59.3,35.0,29.97,NW,312,7.0,10.0,40,0.00,,,0.00,0,WeatherCatV1.15B25,2013-07-10 05:13:00,
2013-07-09 22:18:00,59.2,34.9,29.94,WNW,293,6.0,10.0,40,0.00,,,0.00,0,WeatherCatV1.15B25,2013-07-10 05:18:00,
2013-07-09 22:23:00,59.0,34.7,29.94,WNW,293,10.0,14.0,40,0.00,,,0.00,0,WeatherCatV1.15B25,2013-07-10 05:23:00,
2013-07-09 22:28:00,59.2,34.9,29.94,WNW,293,7.0,12.0,40,0.00,,,0.00,0,WeatherCatV1.15B25,2013-07-10 05:28:00,
2013-07-09 22:33:00,59.2,34.3,29.95,WNW,293,9.0,12.0,39,0.00,,,0.00,0,WeatherCatV1.15B25,2013-07-10 05:33:00,
2013-07-09 22:38:00,59.0,34.1,29.95,WNW,293,8.0,12.0,39,0.00,,,0.00,0,WeatherCatV1.15B25,2013-07-10 05:38:00,
2013-07-09 22:43:00,58.9,34.0,29.95,WNW,293,7.0,12.0,39,0.00,,,0.00,0,WeatherCatV1.15B25,2013-07-10 05:43:00,
2013-07-09 22:48:00,58.7,33.8,29.94,NW,315,10.0,13.0,39,0.00,,,0.00,0,WeatherCatV1.15B25,2013-07-10 05:48:00,
2013-07-09 22:53:00,58.6,34.4,29.94,NW,310,9.0,11.0,40,0.00,,,0.00,0,WeatherCatV1.15B25,2013-07-10 05:53:00,
2013-07-09 22:58:00,58.4,34.2,29.94,NW,307,10.0,13.0,40,0.00,,,0.00,0,WeatherCatV1.15B25,2013-07-10 05:58:00,
2013-07-09 23:03:00,58.3,34.1,29.95,NW,304,9.0,10.0,40,0.00,,,0.00,0,WeatherCatV1.15B25,2013-07-10 06:03:00,
2013-07-09 23:08:00,58.3,34.1,29.95,WNW,293,12.0,12.0,40,0.00,,,0.00,0,WeatherCatV1.15B25,2013-07-10 06:08:00,
2013-07-09 23:13:00,58.1,33.9,29.95,WNW,293,7.0,12.0,40,0.00,,,0.00,0,WeatherCatV1.15B25,2013-07-10 06:13:00,
2013-07-09 23:18:00,58.3,34.1,29.94,NW,305,8.0,13.0,40,0.00,,,0.00,0,WeatherCatV1.15B25,2013-07-10 06:18:00,
2013-07-09 23:23:00,58.3,33.5,29.94,NW,305,11.0,14.0,39,0.00,,,0.00,0,WeatherCatV1.15B25,2013-07-10 06:23:00,
2013-07-09 23:28:00,58.3,33.5,29.94,WNW,297,13.0,14.0,39,0.00,,,0.00,0,WeatherCatV1.15B25,2013-07-10 06:28:00,
2013-07-09 23:33:00,58.4,31.6,29.94,WNW,293,11.0,13.0,36,0.00,,,0.00,0,WeatherCatV1.15B25,2013-07-10 06:33:00,
2013-07-09 23:38:00,58.6,33.1,29.94,WNW,283,6.0,14.0,38,0.00,,,0.00,0,WeatherCatV1.15B25,2013-07-10 06:38:00,
2013-07-09 23:43:00,58.1,33.9,29.94,NW,311,11.0,15.0,40,0.00,,,0.00,0,WeatherCatV1.15B25,2013-07-10 06:43:00,
2013-07-09 23:48:00,57.6,34.1,29.94,West,263,9.0,10.0,41,0.00,,,0.00,0,WeatherCatV1.15B25,2013-07-10 06:48:00,
2013-07-09 23:53:00,57.2,33.7,29.94,WNW,293,6.0,12.0,41,0.00,,,0.00,0,WeatherCatV1.15B25,2013-07-10 06:53:00,
2013-07-09 23:58:00,56.9,33.4,29.94,WNW,293,6.0,9.0,41,0.00,,,0.00,0,WeatherCatV1.15B25,2013-07-10 06:58:00,